Location: Beloeil
(50.5498°N, 3.7363°E)
Time: 21:58:02
(UTC+00:00)

Daily predictions for brighter satellites

Satellite Brightness Start Highest point End
(mag) Time Altitude Azimuth Time Altitude Azimuth Time Altitude Azimuth
Cosmos 2034 Rocket 4.4 16:43:31 10° NNW 16:49:39 71° W 16:55:47 10° S
Cosmos 2237 Rocket 3.3 16:45:44 10° SSE 16:50:22 26° ESE 16:55:01 10° NE
RESURS DK-1 2.8 16:47:10 10° NNW 16:50:57 38° NE 16:54:44 10° ESE
Cosmos 1515 Rocket 4.2 16:49:43 10° SSW 16:53:57 58° WNW 16:58:16 10° N
Tsikada Rocket 4.0 16:48:33 10° S 16:54:39 75° E 17:00:50 10° NNE
BlueWalker 3 2.0 16:52:23 10° WNW 16:55:59 55° N 16:59:36 10° E
USA 81 4.0 16:51:31 10° S 16:56:47 78° E 17:02:04 10° N
BREEZE-M DEB (TANK) 2.6 16:55:22 10° SW 16:57:24 26° SSE 16:59:48 10° E
Cosmos 1455 1.6 16:54:34 10° N 16:57:48 78° E 17:00:59 10° SSE
Cosmos 2278 Rocket 2.2 16:52:28 10° NNW 16:58:10 71° ENE 17:03:49 10° SE
COSMO-SKYMED 1 3.9 16:57:24 10° NE 17:00:44 21° E 17:04:02 10° SE
Cosmos 2219 Rocket 2.7 16:55:46 10° SW 17:01:17 59° NW 17:06:51 10° NNE
SJ-7 4.3 16:58:23 10° SSE 17:02:04 53° ENE 17:05:48 10° N
ARGOS Delta rocket 3.7 16:58:04 10° SSE 17:02:39 65° ENE 17:07:05 10° N
ISS -2.1 17:00:39 10° SSW 17:03:21 23° SE 17:06:03 10° E
CZ-4C R/B 3.3 17:01:30 10° SSE 17:04:38 19° ESE 17:08:01 11° ENE
CSL-04 DEB 4.2 17:02:41 10° SSE 17:06:32 73° ENE 17:10:20 10° NNW
Meteor 1-21 4.2 17:03:37 10° S 17:09:09 65° E 17:14:46 10° NNE
USA 306 2.3 17:09:14 10° WNW 17:11:09 32° N 17:12:55 15° ENE
SL-14 R/B 4.2 17:07:43 10° SSW 17:11:22 48° WNW 17:15:05 10° N
CORIOLIS 4.4 17:06:02 10° SSE 17:11:27 79° WSW 17:16:57 10° NNW
Cosmos 1763 Rocket 3.5 17:07:04 10° S 17:12:12 63° ESE 17:17:18 10° NNE
Spot 4 Rocket 4.0 17:07:51 10° SSE 17:12:59 87° ENE 17:18:09 10° NNW
YAOGAN 1 3.6 17:10:23 10° ESE 17:13:50 24° ENE 17:17:17 10° N
Cosmos 1733 Rocket 3.1 17:09:36 10° N 17:13:56 54° ENE 17:18:15 10° SSE
Cosmos 540 Rocket 3.6 17:12:56 10° S 17:17:56 56° ESE 17:22:57 10° NNE
Landsat 7 4.1 17:15:27 10° SE 17:19:51 42° ENE 17:24:18 10° N
Cosmos 2322 3.9 17:14:54 10° SSW 17:20:38 78° WNW 17:26:24 10° NNE
Cosmos 468 Rocket 4.2 17:16:54 10° S 17:21:52 48° ESE 17:26:49 10° NNE
USA 215 3.5 17:16:12 11° ENE 17:22:23 66° NNW 17:28:51 10° W
Cosmos 2228 Rocket 3.3 17:21:21 10° S 17:25:44 51° E 17:30:10 10° NNE
Cosmos 2279 Rocket 4.0 17:19:48 10° N 17:26:03 84° E 17:32:14 10° S
NOSS 8 (A) 4.4 17:25:19 10° NW 17:28:13 73° SW 17:31:36 10° SE
Cosmos 1656 Rocket 4.3 17:23:34 10° NNW 17:28:27 32° NE 17:33:21 10° ESE
Cosmos 1898 Rocket 3.5 17:23:34 10° NNW 17:28:50 62° ENE 17:34:05 10° SE
Cosmos 841 Rocket 4.3 17:26:55 10° SSE 17:31:27 30° E 17:35:00 15° NE
Aureole 1 Rocket 4.3 17:25:05 10° NNW 17:32:53 78° ENE 17:39:52 10° SSE
PSLV R/B 3.9 17:29:46 10° S 17:33:47 63° WSW 17:37:52 10° NNW
Cosmos 1703 4.5 17:34:24 10° SE 17:36:27 19° E 17:36:27 19° E
Okean 1-7 3.5 17:35:29 10° SSE 17:39:26 38° E 17:43:22 10° NNE
SL-16 R/B 3.4 17:35:47 10° SE 17:39:45 20° E 17:40:54 19° E
Cosmos 1980 3.7 17:34:17 10° SSW 17:39:49 62° ESE 17:44:57 12° NE
Cosmos 1953 2.3 17:39:03 10° NNW 17:42:47 76° W 17:46:29 10° S
NOSS 8 (E) 4.4 17:38:50 10° SW 17:42:53 84° SE 17:44:41 25° NE
SKYMED 2 3.6 17:44:45 10° NNE 17:49:04 58° E 17:53:21 10° S
NOSS 0 Rocket 3.9 17:43:35 10° SSW 17:49:45 90° ESE 17:55:39 11° NNE
Cosmos 1818 3.6 17:46:10 10° NW 17:51:36 59° NE 17:56:19 14° ESE
ATLAS 2AS CENTAUR R/B 2.7 17:46:23 10° NW 17:53:11 61° NE 17:59:05 13° ESE
NOSS 8 (H) 4.3 17:50:44 10° SW 17:54:35 87° NW 17:55:55 33° NE
Cosmos 2369 Rocket 2.8 17:49:31 10° NNW 17:54:35 34° NE 17:56:55 24° E
Resurs 01 Rocket 3.6 17:57:26 13° NNE 17:57:26 13° NNE 17:58:09 10° NNE
ACS3 Solar Sail 1.8 17:50:21 10° SSE 17:56:43 71° ENE 18:03:05 10° N
COSMOS 2428 3.4 17:51:33 10° SW 17:57:08 53° NW 18:02:43 10° NNE
Cosmos 372 Rocket 4.0 17:53:46 10° NNW 17:58:53 82° WSW 18:03:57 10° SSE
Cosmos 2333 Rocket 4.2 17:55:05 10° W 17:59:10 20° NW 18:03:18 10° NNE
BREEZE-M DEB (TANK) 3.4 17:57:18 10° WSW 18:05:57 78° S 18:07:22 37° E
Cosmos 1908 Rocket 3.4 18:02:42 10° N 18:07:02 61° ENE 18:11:17 10° SSE
Cosmos 2322 Rocket 4.4 18:05:04 10° WNW 18:08:34 16° NNW 18:12:05 10° N
Cosmos 2360 Rocket 4.4 18:07:36 10° WNW 18:11:24 18° NNW 18:15:14 10° N
Meteor 1-31 Rocket 2.6 18:09:25 10° S 18:12:59 79° WSW 18:16:35 10° NNW
EO 1 Delta rocket 3.7 18:08:12 10° NNE 18:13:01 83° E 18:17:39 10° S
Okean 3 4.3 18:09:44 10° SSW 18:13:43 48° WNW 18:17:45 10° N
Cosmos 1707 Rocket 4.3 18:10:09 10° SSW 18:14:30 55° WNW 18:18:53 10° N
Okean 2 4.0 18:13:38 10° SSW 18:17:30 53° WNW 18:21:24 10° N
Cosmos 2297 3.9 18:12:14 10° NNW 18:17:51 51° NE 18:20:17 31° ESE
Cosmos 1937 Rocket 3.6 18:13:44 10° NNW 18:18:53 75° WSW 18:24:01 10° SSE
CZ-2C R/B 2.4 18:22:18 62° NNE 18:22:18 62° NNE 18:25:13 10° N
Cosmos 2026 Rocket 4.1 18:17:02 10° SSE 18:23:11 54° E 18:29:22 10° NNE
Cosmos 858 Rocket 4.4 18:18:14 10° NNW 18:23:28 87° WSW 18:28:41 10° SSE
BREEZE-M DEB (TANK) 3.5 18:13:38 10° WSW 18:27:18 65° SSE 18:28:56 41° ESE
Cosmos 1943 Rocket 3.8 18:22:28 10° NW 18:27:34 36° WSW 18:32:37 10° S
Cosmos 1428 Rocket 4.3 18:23:49 10° S 18:30:00 78° E 18:36:10 10° NNE
BlueWalker 3 1.8 18:30:16 10° WNW 18:33:53 78° SW 18:33:53 78° SW
Cosmos 2237 Rocket 2.6 18:28:21 10° SW 18:34:00 63° NW 18:37:58 20° NNE
COSMO-SKYMED 1 3.4 18:32:57 10° N 18:37:10 49° WNW 18:41:21 10° SW
ISS -3.0 18:36:25 10° WSW 18:39:01 51° WSW 18:39:01 51° WSW
USA 306 4.4 18:40:02 10° WNW 18:40:49 19° WNW 18:40:49 19° WNW
Cosmos 1782 Rocket 3.9 18:38:29 10° N 18:41:42 48° N 18:41:42 48° N
Cosmos 2344 3.9 18:37:08 10° WSW 18:44:23 57° NW 18:48:48 25° NE
Cosmos 2219 Rocket 4.4 18:42:47 10° WNW 18:46:26 17° NNW 18:50:07 10° N
YAOGAN 1 3.7 18:45:27 10° S 18:49:31 43° W 18:53:38 10° NNW
YAOGAN 11 4.0 18:51:31 79° SSW 18:51:31 79° SSW 18:55:32 10° SSW
CZ-4C R/B 1.9 18:47:27 10° SW 18:52:00 76° NW 18:53:04 56° NNE
ATLAS 5 CENTAUR R/B 3.0 18:53:27 10° SW 18:54:39 21° SW 18:54:39 21° SW
Meteor 1-24 Rocket 3.7 18:52:19 10° S 18:58:08 65° E 18:58:08 65° E
CZ-4B R/B 4.4 19:00:45 27° N 19:00:45 27° N 19:03:20 10° N
SPOT 1/Viking Rocket 4.0 18:55:41 10° S 19:00:47 59° W 19:05:53 10° NNW
Cosmos 1703 Rocket 4.0 18:56:47 10° SSW 19:01:11 61° WNW 19:02:12 47° NNW
USA 215 3.6 19:03:32 44° NE 19:04:58 51° N 19:11:15 10° WNW
Resurs 1-3 4.4 19:01:07 10° S 19:05:18 48° W 19:09:30 10° NNW
Meteor 2-5 Rocket 3.9 19:03:01 10° S 19:07:38 57° SSE 19:07:38 57° SSE
Cosmos 1656 Rocket 4.1 19:06:56 10° NW 19:12:18 57° WSW 19:14:50 30° S
Cosmos 841 Rocket 4.4 19:07:59 10° SW 19:13:04 47° WNW 19:15:03 32° N
SL-16 R/B 2.2 19:17:30 10° SSW 19:22:50 76° WSW 19:22:50 76° WSW
Cosmos 1553 Rocket 3.8 19:17:37 10° N 19:23:48 87° W 19:23:51 87° WSW
ADEOS 4.0 19:29:32 61° W 19:29:32 61° W 19:34:20 10° NNW
Resurs 01 Rocket 4.1 19:34:52 14° NNW 19:34:52 14° NNW 19:35:27 10° NNW
Cosmos 2369 Rocket 2.7 19:33:25 10° NW 19:38:44 54° WSW 19:38:44 54° WSW
ACS3 Solar Sail 3.9 19:35:40 10° SW 19:40:49 25° W 19:46:00 10° NNW
ATLAS 2AS CENTAUR R/B 3.7 19:37:38 10° NW 19:43:50 40° WSW 19:46:35 28° SSW
Cosmos 2237 Rocket 4.4 20:15:21 10° WNW 20:19:14 18° NNW 20:19:48 18° NNW
